DW7955 Weather Reports


Display with metric or nautical units.
time (UTC)temp
F
wind
direction
speed
MPH
gust
MPH
rain 1hr
in
rain 24hr
in
rain mn
in
humidity
%
barometer
mb
20240524110019 48 74 6.0 15.0 0.00 0.00 0.00 54 1003.6
20240524104516 48 66 6.0 14.0 0.00 0.00 0.00 54 1003.4
20240524103028 49 92 6.0 13.0 0.00 0.00 0.00 55 1003.4
20240524101509 49 94 5.0 11.0 0.00 0.00 0.00 53 1003.2
20240524100007 50 101 3.0 10.0 0.00 0.00 0.00 52 1003.1
20240524094504 51 126 7.0 12.0 0.00 0.00 0.00 50 1002.9
20240524093006 52 116 7.0 11.0 0.00 0.00 0.00 50 1002.9
20240524091501 51 119 6.0 12.0 0.00 0.00 0.00 51 1002.8
20240524090100 51 131 8.0 11.0 0.00 0.00 0.00 51 1002.8
20240524084558 51 256 3.0 8.0 0.00 0.00 0.00 53 1002.7
20240524083105 51 128 8.0 10.0 0.00 0.00 0.00 53 1002.6
20240524081553 52 236 2.0 12.0 0.00 0.00 0.00 51 1002.7
20240524080051 52 127 6.0 10.0 0.00 0.00 0.00 49 1002.3
20240524074549 52 134 9.0 14.0 0.00 0.00 0.00 49 1002.3
20240524073048 52 146 7.0 20.0 0.00 0.00 0.00 49 1002.1
20240524071547 52 132 6.0 11.0 0.00 0.00 0.00 52 1002.0
20240524070046 52 130 5.0 8.0 0.00 0.00 0.00 54 1001.8
20240524064540 52 140 5.0 14.0 0.00 0.00 0.00 52 1001.8
20240524063041 54 137 7.0 12.0 0.00 0.00 0.00 47 1001.6
20240524061535 54 130 5.0 9.0 0.00 0.00 0.00 47 1001.5
20240524060041 54 159 6.0 9.0 0.00 0.00 0.00 46 1001.4
20240524054531 56 130 6.0 10.0 0.00 0.00 0.00 43 1001.2
20240524053034 57 217 4.0 8.0 0.00 0.00 0.00 41 1000.9
20240524051534 58 42 8.0 10.0 0.00 0.00 0.00 39 1000.5
20240524050033 58 356 7.0 17.0 0.00 0.00 0.00 39 1000.1
20240524044533 58 38 10.0 15.0 0.00 0.00 0.00 38 999.9
20240524043044 59 34 10.0 15.0 0.00 0.00 0.00 38 999.7
20240524041529 59 34 9.0 17.0 0.00 0.00 0.00 37 999.4
20240524040028 60 8 11.0 21.0 0.00 0.00 0.00 36 999.2
20240524034528 61 8 9.0 20.0 0.00 0.00 0.00 36 998.9
20240524033027 62 24 14.0 24.0 0.00 0.00 0.00 36 998.5
20240524031527 64 18 13.0 20.0 0.00 0.00 0.00 33 997.9
20240524030027 71 295 6.0 11.0 0.00 0.00 0.00 19 997.1
20240524024526 72 246 2.0 6.0 0.00 0.00 0.00 18 996.4
20240524023026 73 231 1.0 7.0 0.00 0.00 0.00 17 995.9
20240524021530 74 288 4.0 10.0 0.00 0.00 0.00 17 995.4
20240524020027 74 223 6.0 13.0 0.00 0.00 0.00 16 994.8
20240524014526 76 201 4.0 20.0 0.00 0.00 0.00 15 994.5
20240524013023 77 215 7.0 18.0 0.00 0.00 0.00 15 994.2
20240524011525 79 240 7.0 21.0 0.00 0.00 0.00 14 994.0
20240524010022 80 235 11.0 25.0 0.00 0.00 0.00 13 993.6
20240524004522 80 238 11.0 23.0 0.00 0.00 0.00 13 993.3
20240524003021 81 253 10.0 20.0 0.00 0.00 0.00 12 993.1
20240524001521 81 221 12.0 22.0 0.00 0.00 0.00 12 992.9
20240524000032 82 209 8.0 20.0 0.00 0.00 0.00 12 992.9
20240523234520 82 261 10.0 23.0 0.00 0.00 0.00 12 992.8
20240523233020 83 251 9.0 23.0 0.00 0.00 0.00 11 992.9
20240523231519 83 205 10.0 19.0 0.00 0.00 0.00 11 992.8
20240523230017 83 244 8.0 20.0 0.00 0.00 0.00 10 992.9
20240523224530 83 209 9.0 21.0 0.00 0.00 0.00 10 993.0
20240523223016 83 213 9.0 20.0 0.00 0.00 0.00 10 993.0
20240523221516 83 248 10.0 18.0 0.00 0.00 0.00 10 993.2
20240523220013 84 219 9.0 20.0 0.00 0.00 0.00 10 993.4
20240523214522 84 205 7.0 21.0 0.00 0.00 0.00 9 993.5
20240523213010 82 228 5.0 11.0 0.00 0.00 0.00 11 993.8
20240523211505 82 194 2.0 17.0 0.00 0.00 0.00 11 994.1
20240523210003 81 256 3.0 9.0 0.00 0.00 0.00 10 994.5
20240523204559 81 287 3.0 11.0 0.00 0.00 0.00 12 994.9
20240523203056 81 172 3.0 9.0 0.00 0.00 0.00 14 995.2
20240523201553 79 124 7.0 13.0 0.00 0.00 0.00 15 995.4
20240523200054 79 90 5.0 10.0 0.00 0.00 0.00 14 995.7
20240523194607 77 77 6.0 13.0 0.00 0.00 0.00 14 996.0
20240523193045 77 154 5.0 9.0 0.00 0.00 0.00 14 996.3
20240523191542 77 67 6.0 13.0 0.00 0.00 0.00 17 996.7
20240523190040 77 151 4.0 13.0 0.00 0.00 0.00 15 997.0
20240523184549 76 127 3.0 8.0 0.00 0.00 0.00 14 997.5
20240523183042 76 165 4.0 10.0 0.00 0.00 0.00 16 997.7
20240523181533 75 119 7.0 10.0 0.00 0.00 0.00 15 998.0
20240523180030 75 38 5.0 10.0 0.00 0.00 0.00 16 998.2
20240523174529 74 34 1.0 10.0 0.00 0.00 0.00 14 998.3
20240523173026 74 133 4.0 10.0 0.00 0.00 0.00 15 998.6
20240523171523 73 156 4.0 9.0 0.00 0.00 0.00 16 998.9
20240523170028 73 148 2.0 7.0 0.00 0.00 0.00 19 999.2
20240523164526 72 15 4.0 6.0 0.00 0.00 0.00 20 999.4
20240523163015 72 284 1.0 3.0 0.00 0.00 0.00 24 999.7
20240523161519 70 176 1.0 5.0 0.00 0.00 0.00 27 1000.0
20240523160007 68 225 1.0 4.0 0.00 0.00 0.00 31 1000.4
20240523154504 67 151 2.0 4.0 0.00 0.00 0.00 31 1000.5
20240523153058 65 232 2.0 4.0 0.00 0.00 0.00 32 1000.7
20240523151559 64 232 2.0 4.0 0.00 0.00 0.00 33 1001.0
20240523150052 62 192 0.0 3.0 0.00 0.00 0.00 35 1001.4
20240523144602 60 251 0.0 3.0 0.00 0.00 0.00 38 1001.6
20240523143051 60 192 1.0 4.0 0.00 0.00 0.00 40 1001.7
20240523141551 58 13 2.0 4.0 0.00 0.00 0.00 38 1001.7
20240523140038 57 310 3.0 6.0 0.00 0.00 0.00 41 1001.9
20240523134540 55 308 0.0 5.0 0.00 0.00 0.00 47 1002.0
20240523133032 52 8 3.0 6.0 0.00 0.00 0.00 54 1002.0
20240523131530 49 33 4.0 6.0 0.00 0.00 0.00 56 1002.1
20240523130031 47 35 2.0 7.0 0.00 0.00 0.00 60 1002.1
20240523124530 46 42 0.0 3.0 0.00 0.00 0.00 64 1001.9
20240523123029 44 88 1.0 3.0 0.00 0.00 0.00 65 1002.0
20240523121530 44 165 1.0 2.0 0.00 0.00 0.00 65 1002.0
20240523120034 44 167 2.0 4.0 0.00 0.00 0.00 63 1002.0
20240523114527 44 294 4.0 6.0 0.00 0.00 0.00 65 1001.8
20240523113043 44 281 0.0 2.0 0.00 0.00 0.00 65 1002.2
20240523111521 45 175 0.0 3.0 0.00 0.00 0.00 63 1002.1